This is the latest recevied weather packets stored in our database for station/object SV2RIM-2. If no packets are shown the sender has not sent any weather packets the latest 10 day(s).
| Time | Temp. | Humidity | Pressure | Rain* | Wind** | Luminosity | Snow |
|---|---|---|---|---|---|---|---|
| 1777410319 | 12.22° C | 67% | 1016.7 hPa | - | - | - | - |
| 1777409719 | 12.22° C | 66% | 1016.6 hPa | - | - | - | - |
| 1777409119 | 12.78° C | 64% | 1016.5 hPa | - | - | - | - |
| 1777408519 | 12.78° C | 64% | 1016.5 hPa | - | - | - | - |
| 1777407919 | 12.78° C | 64% | 1016.5 hPa | - | - | - | - |
| 1777407319 | 12.78° C | 63% | 1016.4 hPa | - | - | - | - |
| 1777406719 | 12.78° C | 64% | 1016.5 hPa | - | - | - | - |
| 1777406119 | 13.33° C | 63% | 1016.4 hPa | - | - | - | - |
| 1777405519 | 13.89° C | 62% | 1016.3 hPa | - | - | - | - |
| 1777404919 | 13.89° C | 61% | 1016.3 hPa | - | - | - | - |
| 1777404319 | 14.44° C | 59% | 1016.2 hPa | - | - | - | - |
| 1777403719 | 14.44° C | 58% | 1016.2 hPa | - | - | - | - |
| 1777403119 | 15° C | 58% | 1016.1 hPa | - | - | - | - |
| 1777402519 | 15° C | 58% | 1016.1 hPa | - | - | - | - |
| 1777401919 | 15.56° C | 56% | 1016.1 hPa | - | - | - | - |
| 1777401319 | 15.56° C | 56% | 1015.8 hPa | - | - | - | - |
| 1777400719 | 16.11° C | 54% | 1015.7 hPa | - | - | - | - |
| 1777400119 | 16.11° C | 54% | 1015.5 hPa | - | - | - | - |
| 1777399519 | 16.67° C | 53% | 1015.4 hPa | - | - | - | - |
| 1777398919 | 16.67° C | 53% | 1015.3 hPa | - | - | - | - |
| 1777398319 | 17.78° C | 50% | 1015.1 hPa | - | - | - | - |
| 1777397719 | 18.33° C | 49% | 1015 hPa | - | - | - | - |
| 1777397119 | 18.33° C | 49% | 1015 hPa | - | - | - | - |
| 1777396519 | 18.89° C | 48% | 1015 hPa | - | - | - | - |
| 1777395919 | 19.44° C | 48% | 1014.9 hPa | - | - | - | - |
* Rain since midnight (hover to see other rain measurements)
** Current wind speed in m/s (hover to see current wind gust speed)